When you browse on this site, cookies collect data to enhance your experience and personalize the content and advertising you see.
Visit our Privacy Policy to learn more. By continuing to use the site, you agree to this use of cookies and data.
  • In Hungary
  • List of Countries
  • For 7 days
  • Water Temperature
  • Satellite Maps
  • Weather Map
  • News
  • Weather Widgets
  • user-avatar
    Login

    Hourly Weather Kartarpur

    Today, 19 March, Tuesday

    Time Temperature Precipitation Wind Pressure Humidity
    00:00 +19°C° 0 mm 1 mps 739 mmHg 69%
    01:00 +16°C° 0 mm 0 mps 739 mmHg 68%
    02:00 +16°C° 0 mm 0 mps 738 mmHg 67%
    03:00 +16°C° 0 mm 0 mps 738 mmHg 65%
    04:00 +16°C° 0 mm 0 mps 738 mmHg 62%
    05:00 +16°C° 0 mm 0 mps 738 mmHg 60%
    06:00 +17°C° 0 mm 0 mps 738 mmHg 58%
    07:00 +18°C° 0 mm 0 mps 738 mmHg 57%
    08:00 +21°C° 0 mm 1 mps 738 mmHg 55%
    09:00 +23°C° 0 mm 1 mps 738 mmHg 50%
    10:00 +25°C° 0 mm 1 mps 738 mmHg 45%
    11:00 +28°C° 0 mm 1 mps 738 mmHg 40%
    12:00 +28°C° 0 mm 1 mps 737 mmHg 37%
    13:00 +29°C° 0 mm 1 mps 737 mmHg 35%
    14:00 +30°C° 0 mm 1 mps 736 mmHg 32%
    15:00 +29°C° 0 mm 1 mps 736 mmHg 36%
    16:00 +28°C° 0 mm 1 mps 736 mmHg 41%
    17:00 +28°C° 0 mm 1 mps 736 mmHg 46%
    18:00 +26°C° 0 mm 2 mps 736 mmHg 46%
    19:00 +24°C° 0 mm 3 mps 736 mmHg 46%
    20:00 +21°C° 0 mm 3 mps 737 mmHg 46%
    21:00 +21°C° 0 mm 4 mps 737 mmHg 40%
    22:00 +21°C° 0 mm 4 mps 737 mmHg 34%
    23:00 +21°C° 0 mm 5 mps 737 mmHg 28%

    Tomorrow, 20 March, Wednesday

    Time Temperature Precipitation Wind Pressure Humidity
    00:00 +21°C° 0 mm 5 mps 736 mmHg 25%
    01:00 +20°C° 0 mm 5 mps 736 mmHg 22%
    02:00 +20°C° 0 mm 5 mps 736 mmHg 20%
    03:00 +21°C° 0 mm 4 mps 736 mmHg 20%
    04:00 +21°C° 0 mm 4 mps 735 mmHg 20%
    05:00 +21°C° 0 mm 3 mps 735 mmHg 21%
    06:00 +20°C° 0.2 mm 3 mps 736 mmHg 31%
    07:00 +20°C° 0.2 mm 3 mps 736 mmHg 41%
    08:00 +20°C° 0.2 mm 2 mps 736 mmHg 52%
    09:00 +22°C° 0.2 mm 3 mps 737 mmHg 48%
    10:00 +25°C° 0.2 mm 4 mps 737 mmHg 44%
    11:00 +28°C° 0.2 mm 5 mps 737 mmHg 40%
    12:00 +29°C° 0 mm 5 mps 737 mmHg 37%
    13:00 +30°C° 0 mm 5 mps 736 mmHg 34%
    14:00 +32°C° 0 mm 5 mps 736 mmHg 31%
    15:00 +30°C° 0 mm 5 mps 736 mmHg 36%
    16:00 +28°C° 0 mm 5 mps 735 mmHg 41%
    17:00 +27°C° 0 mm 5 mps 735 mmHg 46%
    18:00 +26°C° 0 mm 4 mps 736 mmHg 46%
    19:00 +23°C° 0 mm 4 mps 736 mmHg 46%
    20:00 +22°C° 0 mm 3 mps 737 mmHg 46%
    21:00 +20°C° 0.6 mm 3 mps 738 mmHg 53%
    22:00 +18°C° 0.6 mm 3 mps 738 mmHg 60%
    23:00 +17°C° 0.6 mm 3 mps 738 mmHg 67%

    Day after tomorrow, 21 March, Thursday

    Time Temperature Precipitation Wind Pressure Humidity
    00:00 +17°C° 0 mm 3 mps 738 mmHg 65%
    01:00 +15°C° 0 mm 4 mps 738 mmHg 62%
    02:00 +15°C° 0 mm 4 mps 738 mmHg 60%
    03:00 +16°C° 0 mm 3 mps 738 mmHg 57%
    04:00 +16°C° 0 mm 3 mps 738 mmHg 54%
    05:00 +16°C° 0 mm 2 mps 738 mmHg 51%
    06:00 +17°C° 0 mm 2 mps 738 mmHg 51%
    07:00 +18°C° 0 mm 2 mps 739 mmHg 52%
    08:00 +20°C° 0 mm 2 mps 740 mmHg 53%
    09:00 +23°C° 0 mm 2 mps 740 mmHg 48%
    10:00 +25°C° 0 mm 2 mps 740 mmHg 44%
    11:00 +27°C° 0 mm 2 mps 740 mmHg 40%
    12:00 +28°C° 0 mm 2 mps 740 mmHg 39%
    13:00 +29°C° 0 mm 2 mps 739 mmHg 38%
    14:00 +29°C° 0 mm 2 mps 739 mmHg 38%
    15:00 +29°C° 0 mm 2 mps 738 mmHg 43%
    16:00 +28°C° 0 mm 2 mps 738 mmHg 48%
    17:00 +27°C° 0 mm 3 mps 738 mmHg 54%
    18:00 +25°C° 0 mm 2 mps 739 mmHg 57%
    19:00 +23°C° 0 mm 2 mps 739 mmHg 61%
    20:00 +20°C° 0 mm 2 mps 740 mmHg 64%
    21:00 +19°C° 0 mm 2 mps 740 mmHg 59%
    22:00 +19°C° 0 mm 2 mps 741 mmHg 53%
    23:00 +18°C° 0 mm 2 mps 741 mmHg 48%

    22 March, Friday

    Time Temperature Precipitation Wind Pressure Humidity
    00:00 +18°C° 0 mm 2 mps 741 mmHg 46%
    01:00 +17°C° 0 mm 2 mps 740 mmHg 44%
    02:00 +17°C° 0 mm 2 mps 740 mmHg 42%
    03:00 +16°C° 0 mm 2 mps 740 mmHg 41%
    04:00 +16°C° 0 mm 2 mps 740 mmHg 41%
    05:00 +14°C° 0 mm 3 mps 740 mmHg 40%
    06:00 +16°C° 0 mm 3 mps 740 mmHg 42%
    07:00 +18°C° 0 mm 3 mps 740 mmHg 44%
    08:00 +19°C° 0 mm 3 mps 741 mmHg 45%
    09:00 +22°C° 0 mm 3 mps 741 mmHg 41%
    10:00 +25°C° 0 mm 3 mps 741 mmHg 36%
    11:00 +28°C° 0 mm 3 mps 741 mmHg 31%
    12:00 +28°C° 0 mm 3 mps 740 mmHg 32%
    13:00 +29°C° 0 mm 4 mps 740 mmHg 34%
    14:00 +29°C° 0 mm 5 mps 740 mmHg 35%
    15:00 +28°C° 0 mm 4 mps 739 mmHg 40%
    16:00 +27°C° 0 mm 4 mps 739 mmHg 45%
    17:00 +26°C° 0 mm 3 mps 739 mmHg 49%
    18:00 +24°C° 0 mm 3 mps 739 mmHg 51%
    19:00 +21°C° 0 mm 3 mps 740 mmHg 52%
    20:00 +19°C° 0 mm 3 mps 740 mmHg 54%
    21:00 +18°C° 0 mm 3 mps 740 mmHg 55%
    22:00 +18°C° 0 mm 3 mps 740 mmHg 57%
    23:00 +17°C° 0 mm 3 mps 740 mmHg 59%

    23 March, Saturday

    Time Temperature Precipitation Wind Pressure Humidity
    00:00 +16°C° 0 mm 3 mps 740 mmHg 58%
    01:00 +16°C° 0 mm 3 mps 739 mmHg 58%
    02:00 +16°C° 0 mm 3 mps 739 mmHg 58%
    03:00 +14°C° 0 mm 3 mps 739 mmHg 58%
    04:00 +15°C° 0 mm 2 mps 739 mmHg 57%
    05:00 +15°C° 0 mm 2 mps 739 mmHg 57%
    06:00 +16°C° 0 mm 2 mps 739 mmHg 55%
    07:00 +17°C° 0 mm 2 mps 739 mmHg 53%
    08:00 +19°C° 0 mm 2 mps 739 mmHg 50%
    09:00 +21°C° 0 mm 2 mps 740 mmHg 47%
    10:00 +24°C° 0 mm 3 mps 740 mmHg 43%
    11:00 +26°C° 0 mm 3 mps 740 mmHg 39%
    12:00 +26°C° 0 mm 4 mps 739 mmHg 40%
    13:00 +26°C° 0 mm 4 mps 739 mmHg 40%
    14:00 +27°C° 0 mm 4 mps 738 mmHg 40%
    15:00 +26°C° 0 mm 3 mps 738 mmHg 43%
    16:00 +26°C° 0 mm 3 mps 738 mmHg 47%
    17:00 +25°C° 0 mm 2 mps 737 mmHg 51%
    18:00 +23°C° 0 mm 2 mps 738 mmHg 54%
    19:00 +21°C° 0 mm 2 mps 738 mmHg 57%
    20:00 +19°C° 0 mm 2 mps 739 mmHg 60%
    21:00 +18°C° 0 mm 2 mps 739 mmHg 60%
    22:00 +18°C° 0 mm 2 mps 739 mmHg 60%
    23:00 +17°C° 0 mm 2 mps 739 mmHg 60%

    24 March, Sunday

    Time Temperature Precipitation Wind Pressure Humidity
    00:00 +17°C° 0 mm 2 mps 738 mmHg 60%
    01:00 +17°C° 0 mm 2 mps 738 mmHg 59%
    02:00 +18°C° 0 mm 1 mps 737 mmHg 58%
    03:00 +18°C° 0 mm 1 mps 737 mmHg 56%
    04:00 +17°C° 0 mm 2 mps 737 mmHg 54%
    05:00 +17°C° 0 mm 2 mps 737 mmHg 52%
    06:00 +18°C° 0 mm 2 mps 737 mmHg 51%
    07:00 +19°C° 0 mm 2 mps 738 mmHg 50%
    08:00 +21°C° 0 mm 2 mps 739 mmHg 50%
    09:00 +23°C° 0 mm 2 mps 739 mmHg 48%
    10:00 +24°C° 0 mm 3 mps 739 mmHg 46%
    11:00 +25°C° 0 mm 3 mps 740 mmHg 44%
    12:00 +26°C° 0 mm 3 mps 739 mmHg 40%
    13:00 +28°C° 0 mm 3 mps 739 mmHg 36%
    14:00 +29°C° 0 mm 3 mps 738 mmHg 32%
    15:00 +29°C° 0 mm 2 mps 738 mmHg 36%
    16:00 +28°C° 0 mm 2 mps 738 mmHg 39%
    17:00 +28°C° 0 mm 2 mps 737 mmHg 42%
    18:00 +25°C° 0 mm 2 mps 738 mmHg 46%
    19:00 +23°C° 0 mm 2 mps 738 mmHg 49%
    20:00 +20°C° 0 mm 2 mps 739 mmHg 52%
    21:00 +19°C° 0 mm 2 mps 739 mmHg 52%
    22:00 +19°C° 0 mm 2 mps 739 mmHg 52%
    23:00 +18°C° 0 mm 2 mps 739 mmHg 52%
    Show more